TimePST,TemperatureF,Dew PointF,Humidity,Sea Level PressureIn,VisibilityMPH,Wind Direction,Wind SpeedMPH,Gust SpeedMPH,PrecipitationIn,Events,Conditions,WindDirDegrees,DateUTC
12:56 AM,32.0,25.0,75,30.03,10.0,SSE,3.5,-,N/A,,Clear,160,2013-02-21 08:56:00
1:56 AM,30.0,25.0,82,30.05,10.0,Calm,Calm,-,N/A,,Mostly Cloudy,0,2013-02-21 09:56:00
2:56 AM,30.0,24.1,79,30.05,10.0,Calm,Calm,-,N/A,,Scattered Clouds,0,2013-02-21 10:56:00
3:56 AM,30.9,25.0,79,30.06,10.0,Calm,Calm,-,N/A,,Overcast,0,2013-02-21 11:56:00
4:56 AM,30.0,24.1,79,30.08,10.0,ESE,3.5,-,N/A,,Mostly Cloudy,120,2013-02-21 12:56:00
5:56 AM,30.9,26.1,82,30.09,10.0,Calm,Calm,-,N/A,,Overcast,0,2013-02-21 13:56:00
6:56 AM,30.9,26.1,82,30.09,10.0,ESE,3.5,-,N/A,,Overcast,120,2013-02-21 14:56:00
7:56 AM,34.0,26.1,73,30.08,10.0,ENE,3.5,-,N/A,,Clear,60,2013-02-21 15:56:00
8:56 AM,37.9,28.9,70,30.09,10.0,East,3.5,-,N/A,,Overcast,100,2013-02-21 16:56:00
9:56 AM,36.0,28.9,76,30.08,10.0,Calm,Calm,-,N/A,,Overcast,0,2013-02-21 17:56:00
10:56 AM,39.9,30.0,68,30.07,10.0,NNW,6.9,-,N/A,,Overcast,330,2013-02-21 18:56:00
11:56 AM,41.0,28.9,62,30.05,10.0,North,4.6,-,N/A,,Overcast,350,2013-02-21 19:56:00
12:54 PM,39.2,28.4,65,30.02,10.0,Calm,Calm,-,0.00,Rain,Light Rain,0,2013-02-21 20:54:00
12:56 PM,39.9,28.9,65,30.06,10.0,Calm,Calm,-,0.00,Rain,Light Rain,0,2013-02-21 20:56:00
1:56 PM,39.9,33.1,77,30.04,10.0,Calm,Calm,-,0.01,Rain,Light Rain,0,2013-02-21 21:56:00
2:39 PM,39.2,33.8,81,30.01,10.0,NNE,3.5,-,0.01,Rain,Light Rain,30,2013-02-21 22:39:00
2:56 PM,39.9,35.1,83,30.05,10.0,North,6.9,-,0.01,Rain,Light Rain,10,2013-02-21 22:56:00
3:17 PM,39.2,35.6,87,30.01,9.0,NNE,4.6,-,N/A,Rain,Light Rain,30,2013-02-21 23:17:00
3:30 PM,39.2,35.6,87,30.01,10.0,NE,3.5,-,0.00,Rain,Light Rain,50,2013-02-21 23:30:00
3:56 PM,39.9,35.1,83,30.05,10.0,ENE,3.5,-,0.00,,Overcast,70,2013-02-21 23:56:00
4:56 PM,39.0,35.1,86,30.05,10.0,ESE,5.8,-,0.00,,Overcast,120,2013-02-22 00:56:00
5:56 PM,37.9,35.1,89,30.06,10.0,SE,3.5,-,N/A,,Overcast,140,2013-02-22 01:56:00
7:56 PM,37.0,33.1,86,30.07,10.0,East,5.8,-,N/A,,Overcast,100,2013-02-22 03:56:00
8:56 PM,37.0,34.0,89,30.05,10.0,ENE,3.5,-,N/A,,Overcast,70,2013-02-22 04:56:00
9:56 PM,37.0,34.0,89,30.06,10.0,SE,5.8,-,N/A,,Overcast,130,2013-02-22 05:56:00
10:56 PM,37.0,33.1,86,30.07,10.0,ENE,8.1,-,0.00,,Overcast,70,2013-02-22 06:56:00
11:56 PM,-9999,-9999,N/A,30.03,-9999.0,North,-9999.0,-,N/A,,Unknown,0,2013-02-22 07:56:00